GW1480 Weather Reports


Display with metric or nautical units.
time (UTC)temp
F
wind
direction
speed
MPH
gust
MPH
rain 1hr
in
rain 24hr
in
rain mn
in
humidity
%
barometer
mb
20260510090909 50 188 0.0 0.0 0.00 0.00 0.00 98 1014.9
20260510090341 50 135 0.0 0.0 0.00 0.00 0.00 98 1015.2
20260510085716 50 171 0.0 0.0 0.00 0.00 0.00 98 1014.9
20260510083948 50 206 0.0 0.0 0.00 0.00 0.00 98 1014.9
20260510083352 50 212 0.0 0.0 0.00 0.00 0.00 98 1014.5
20260510082744 50 123 0.0 0.0 0.00 0.00 0.00 98 1014.5
20260510082119 50 216 0.0 2.0 0.00 0.00 0.00 98 1014.5
20260510081549 51 194 0.0 0.0 0.00 0.00 0.00 98 1014.5
20260510080918 51 173 1.0 2.0 0.00 0.00 0.00 98 1014.5
20260510080327 51 158 0.0 2.0 0.00 0.00 0.00 98 1014.5
20260510075750 51 217 0.0 2.0 0.00 0.00 0.00 98 1014.5
20260510074542 51 218 0.0 0.0 0.00 0.00 0.00 98 1014.2
20260510073942 51 176 0.0 0.0 0.00 0.00 0.00 98 1014.5
20260510073347 51 222 0.0 0.0 0.00 0.00 0.00 98 1014.5
20260510072734 51 224 0.0 0.0 0.00 0.00 0.00 98 1014.5
20260510072126 51 170 0.0 0.0 0.00 0.00 0.00 98 1014.5
20260510071546 51 167 0.0 0.0 0.00 0.00 0.00 98 1014.5
20260510070925 51 170 0.0 0.0 0.00 0.00 0.00 98 1014.2
20260510070312 51 227 0.0 0.0 0.00 0.00 0.00 98 1014.5
20260510065734 51 178 0.0 0.0 0.00 0.00 0.00 98 1014.2
20260510065141 51 219 0.0 0.0 0.00 0.00 0.00 98 1014.5
20260510063923 51 184 0.0 0.0 0.00 0.00 0.00 98 1014.5
20260510063330 52 162 0.0 0.0 0.00 0.00 0.00 98 1014.5
20260510062709 52 207 0.0 0.0 0.00 0.00 0.00 98 1014.5
20260510062146 52 223 0.0 0.0 0.00 0.00 0.00 98 1014.2
20260510061534 52 151 0.0 0.0 0.00 0.00 0.00 98 1014.5
20260510060949 52 131 0.0 0.0 0.00 0.00 0.00 98 1014.5
20260510060341 52 203 0.0 0.0 0.00 0.00 0.00 98 1014.5
20260510055725 52 213 1.0 2.0 0.00 0.00 0.00 98 1014.5
20260510055118 52 182 0.0 0.0 0.00 0.00 0.00 98 1014.5
20260510054538 52 172 0.0 0.0 0.00 0.00 0.00 98 1014.5
20260510053314 52 204 0.0 0.0 0.00 0.00 0.00 98 1014.5
20260510052149 52 205 0.0 0.0 0.00 0.00 0.00 98 1014.5
20260510051548 52 224 0.0 0.0 0.00 0.00 0.00 98 1014.5
20260510050912 52 106 0.0 0.0 0.00 0.00 0.00 98 1014.5
20260510050332 52 193 0.0 0.0 0.00 0.00 0.00 98 1014.9
20260510045721 52 192 0.0 0.0 0.00 0.00 0.00 98 1014.9
20260510045110 52 98 0.0 0.0 0.00 0.00 0.00 98 1014.9
20260510043931 52 178 0.0 0.0 0.00 0.00 0.00 98 1015.2
20260510043338 52 197 0.0 0.0 0.00 0.00 0.00 98 1014.9
20260510042711 52 230 0.0 0.0 0.00 0.00 0.00 97 1014.9
20260510042145 52 200 0.0 0.0 0.00 0.00 0.00 97 1014.9
20260510041533 52 148 0.0 0.0 0.00 0.00 0.00 97 1014.9
20260510040924 52 204 0.0 0.0 0.00 0.00 0.00 97 1014.9
20260510040343 52 160 0.0 0.0 0.00 0.00 0.00 97 1014.9
20260510035747 52 219 0.0 0.0 0.00 0.00 0.00 97 1014.9
20260510035123 52 162 0.0 0.0 0.00 0.00 0.00 97 1014.9
20260510034541 52 175 0.0 0.0 0.00 0.00 0.00 97 1014.9
20260510033910 52 200 0.0 0.0 0.00 0.00 0.00 97 1015.2
20260510033316 52 174 0.0 0.0 0.00 0.00 0.00 97 1014.5
20260510032752 52 203 0.0 0.0 0.00 0.00 0.00 97 1014.9
20260510032147 52 113 0.0 0.0 0.00 0.00 0.00 97 1014.5
20260510031524 53 224 0.0 0.0 0.00 0.00 0.00 97 1014.5
20260510030919 53 139 0.0 0.0 0.00 0.00 0.00 97 1014.9
20260510030328 53 227 0.0 0.0 0.00 0.00 0.00 96 1014.5
20260510025732 53 215 0.0 0.0 0.00 0.00 0.00 96 1014.9
20260510025123 54 223 0.0 0.0 0.00 0.00 0.00 96 1014.5
20260510023940 54 181 0.0 0.0 0.00 0.00 0.00 96 1014.5
20260510022739 54 217 0.0 0.0 0.00 0.00 0.00 96 1014.2
20260510021510 55 227 0.0 0.0 0.00 0.00 0.00 96 1013.8
20260510020952 55 222 0.0 0.0 0.00 0.00 0.00 96 1013.8
20260510015740 55 210 0.0 0.0 0.00 0.00 0.00 95 1013.5
20260510015143 55 214 0.0 0.0 0.00 0.00 0.00 95 1013.5
20260510014511 56 218 0.0 0.0 0.00 0.00 0.00 95 1013.5
20260510013946 56 144 0.0 0.0 0.00 0.00 0.00 95 1013.5
20260510012725 56 185 0.0 0.0 0.00 0.00 0.00 95 1013.5
20260510012131 57 205 0.0 0.0 0.00 0.00 0.00 95 1013.5
20260510011556 57 119 0.0 0.0 0.00 0.00 0.00 95 1013.5
20260510010951 57 183 0.0 0.0 0.00 0.00 0.00 95 1013.2
20260510010348 58 209 0.0 0.0 0.00 0.00 0.00 94 1013.2
20260510005143 59 168 0.0 0.0 0.00 0.00 0.00 94 1013.5
20260510004550 59 165 0.0 0.0 0.00 0.00 0.00 94 1012.8
20260510003307 60 229 0.0 0.0 0.00 0.00 0.00 92 1012.8
20260510002716 61 221 0.0 0.0 0.00 0.00 0.00 92 1012.8
20260510001511 62 218 0.0 0.0 0.00 0.00 0.00 90 1012.5
20260510000943 63 242 0.0 0.0 0.00 0.00 0.00 88 1012.5
20260510000349 64 225 0.0 0.0 0.00 0.00 0.00 87 1012.5
20260509235710 66 264 0.0 0.0 0.00 0.00 0.00 85 1012.5
20260509235126 67 223 0.0 0.0 0.00 0.00 0.00 83 1012.1
20260509234543 68 242 0.0 2.0 0.00 0.00 0.00 81 1012.5
20260509233949 70 247 0.0 0.0 0.00 0.00 0.00 78 1012.5
20260509233339 71 242 0.0 0.0 0.00 0.00 0.00 72 1012.5
20260509232130 72 255 0.0 0.0 0.00 0.00 0.00 72 1012.5
20260509231509 72 264 1.0 2.0 0.00 0.00 0.00 65 1012.5
20260509230951 72 239 0.0 0.0 0.00 0.00 0.00 68 1012.1
20260509230332 72 259 0.0 0.0 0.00 0.00 0.00 64 1012.5
20260509225146 72 115 0.0 0.0 0.00 0.00 0.00 60 1012.5
20260509224535 72 264 2.0 5.0 0.00 0.00 0.00 64 1012.1
20260509223928 72 210 0.0 0.0 0.00 0.00 0.00 61 1012.5
20260509223343 72 177 0.0 2.0 0.00 0.00 0.00 63 1012.5
20260509222130 71 251 0.0 0.0 0.00 0.00 0.00 59 1012.1
20260509220918 70 325 2.0 5.0 0.00 0.00 0.00 64 1012.1
20260509220325 70 87 0.0 2.0 0.00 0.00 0.00 64 1012.5
20260509215723 70 68 0.0 2.0 0.00 0.00 0.00 62 1012.5
20260509215134 71 34 0.0 2.0 0.00 0.00 0.00 63 1012.5
20260509214520 71 146 4.0 7.0 0.00 0.00 0.00 64 1012.5
20260509213335 71 266 1.0 5.0 0.00 0.00 0.00 64 1012.5
20260509212739 71 25 3.0 7.0 0.00 0.00 0.00 62 1012.5
20260509212145 70 296 3.0 5.0 0.00 0.00 0.00 62 1012.1
20260509211542 70 290 2.0 5.0 0.00 0.00 0.00 65 1012.8
20260509210931 71 94 0.0 2.0 0.00 0.00 0.00 64 1012.5
20260509210318 71 113 0.0 0.0 0.00 0.00 0.00 62 1012.8
20260509205747 72 41 1.0 2.0 0.00 0.00 0.00 64 1012.5
20260509205134 72 30 4.0 7.0 0.00 0.00 0.00 63 1012.5
20260509204537 72 12 0.0 0.0 0.00 0.00 0.00 63 1012.5
20260509203950 72 223 0.0 0.0 0.00 0.00 0.00 60 1012.8
20260509203321 71 244 0.0 0.0 0.00 0.00 0.00 61 1012.5
20260509202753 71 291 2.0 5.0 0.00 0.00 0.00 61 1012.5
20260509202126 70 166 0.0 0.0 0.00 0.00 0.00 60 1012.5
20260509201532 70 262 1.0 5.0 0.00 0.00 0.00 64 1012.5
20260509200939 70 308 2.0 5.0 0.00 0.00 0.00 64 1012.5
20260509200309 70 249 0.0 0.0 0.00 0.00 0.00 63 1012.1
20260509195125 70 208 3.0 5.0 0.00 0.00 0.00 68 1012.5
20260509193915 70 68 5.0 7.0 0.00 0.00 0.00 63 1012.5
20260509193337 71 25 2.0 2.0 0.00 0.00 0.00 63 1012.8
20260509192748 71 100 5.0 7.0 0.00 0.00 0.00 63 1012.5
20260509191528 71 297 1.0 2.0 0.00 0.00 0.00 64 1012.5
20260509190313 72 75 4.0 7.0 0.00 0.00 0.00 61 1012.5
20260509185750 71 280 0.0 0.0 0.00 0.00 0.00 63 1012.5
20260509185114 71 293 4.0 7.0 0.00 0.00 0.00 60 1012.5
20260509184531 71 210 2.0 2.0 0.00 0.00 0.00 60 1012.5
20260509183936 70 226 7.0 10.0 0.00 0.00 0.00 62 1012.5
20260509183343 70 124 2.0 5.0 0.00 0.00 0.00 63 1012.5
20260509182727 70 162 0.0 0.0 0.00 0.00 0.00 61 1012.5
20260509182153 70 308 3.0 5.0 0.00 0.00 0.00 63 1012.5
20260509181515 69 122 2.0 5.0 0.00 0.00 0.00 63 1012.5
20260509180942 69 285 3.0 5.0 0.00 0.00 0.00 65 1012.5
20260509180315 68 90 3.0 5.0 0.00 0.00 0.00 65 1012.8
20260509175737 68 332 6.0 7.0 0.00 0.00 0.00 63 1012.5
20260509175152 68 277 0.0 0.0 0.00 0.00 0.00 69 1012.8
20260509174526 68 78 0.0 0.0 0.00 0.00 0.00 65 1012.8
20260509173311 68 236 4.0 7.0 0.00 0.00 0.00 66 1012.8
20260509172726 67 57 3.0 5.0 0.00 0.00 0.00 65 1012.8
20260509171510 68 255 0.0 2.0 0.00 0.00 0.00 68 1012.8
20260509170921 68 310 1.0 2.0 0.00 0.00 0.00 65 1012.8
20260509170323 68 255 1.0 5.0 0.00 0.00 0.00 68 1012.8
20260509165719 68 357 4.0 7.0 0.00 0.00 0.00 64 1012.8
20260509165133 68 229 0.0 0.0 0.00 0.00 0.00 64 1013.2
20260509164539 68 92 3.0 5.0 0.00 0.00 0.00 66 1013.2
20260509163934 68 147 0.0 0.0 0.00 0.00 0.00 62 1013.2
20260509162115 67 310 3.0 5.0 0.00 0.00 0.00 65 1012.8
20260509161540 66 231 0.0 0.0 0.00 0.00 0.00 65 1013.2
20260509160930 66 295 1.0 2.0 0.00 0.00 0.00 66 1013.2
20260509160345 66 131 4.0 5.0 0.00 0.00 0.00 66 1013.2
20260509155716 66 354 6.0 7.0 0.00 0.00 0.00 65 1013.2
20260509154540 66 289 0.0 0.0 0.00 0.00 0.00 67 1012.8
20260509153940 66 271 0.0 2.0 0.00 0.00 0.00 66 1012.8
20260509153324 66 321 0.0 0.0 0.00 0.00 0.00 67 1012.8
20260509152128 66 282 0.0 0.0 0.00 0.00 0.00 65 1012.5
20260509150915 65 35 3.0 5.0 0.00 0.00 0.00 65 1012.5
20260509150315 65 295 0.0 0.0 0.00 0.00 0.00 66 1012.5
20260509145741 64 206 0.0 0.0 0.00 0.00 0.00 67 1012.8
20260509145127 64 255 3.0 5.0 0.00 0.00 0.00 68 1012.8
20260509144508 64 240 0.0 0.0 0.00 0.00 0.00 71 1012.8
20260509143907 64 236 0.0 0.0 0.00 0.00 0.00 76 1013.2
20260509142747 63 57 1.0 2.0 0.00 0.00 0.00 69 1012.5
20260509141517 62 26 0.0 0.0 0.00 0.00 0.00 73 1012.5
20260509140924 62 225 0.0 0.0 0.00 0.00 0.00 83 1012.8
20260509140344 62 227 0.0 0.0 0.00 0.00 0.00 81 1012.8
20260509135710 61 232 0.0 0.0 0.00 0.00 0.00 84 1012.8
20260509135112 61 214 0.0 0.0 0.00 0.00 0.00 80 1012.8
20260509134545 61 244 0.0 0.0 0.00 0.00 0.00 81 1013.2
20260509133914 60 230 0.0 0.0 0.00 0.00 0.00 83 1012.8
20260509132743 60 261 0.0 0.0 0.00 0.00 0.00 84 1012.8
20260509132132 60 259 0.0 0.0 0.00 0.00 0.00 82 1012.5
20260509131511 60 232 0.0 0.0 0.00 0.00 0.00 83 1012.5
20260509130917 60 253 0.0 0.0 0.00 0.00 0.00 85 1012.5
20260509130311 59 239 0.0 0.0 0.00 0.00 0.00 85 1012.5
20260509125721 58 224 0.0 0.0 0.00 0.00 0.00 83 1012.5
20260509125123 57 234 0.0 0.0 0.00 0.00 0.00 86 1012.5
20260509123935 56 176 0.0 0.0 0.00 0.00 0.00 88 1012.5
20260509123351 56 232 0.0 0.0 0.00 0.00 0.00 88 1012.5
20260509122746 56 230 0.0 0.0 0.00 0.00 0.00 87 1012.8
20260509122142 55 222 0.0 0.0 0.00 0.00 0.00 89 1012.8
20260509121510 54 217 0.0 0.0 0.00 0.00 0.00 89 1012.8
20260509120914 54 223 0.0 0.0 0.00 0.00 0.00 88 1012.8
20260509120320 53 231 0.0 0.0 0.00 0.00 0.00 89 1012.5
20260509115739 53 215 0.0 0.0 0.00 0.00 0.00 90 1012.5
20260509115122 52 208 0.0 0.0 0.00 0.00 0.00 89 1012.8
20260509113926 51 198 0.0 0.0 0.00 0.00 0.00 90 1012.8
20260509113325 51 184 0.0 0.0 0.00 0.00 0.00 90 1012.5
20260509112131 50 204 0.0 0.0 0.00 0.00 0.00 91 1012.5
20260509110934 50 204 0.0 0.0 0.00 0.00 0.00 92 1012.8
20260509110313 50 212 0.0 0.0 0.00 0.00 0.00 92 1012.8
20260509104545 50 190 0.0 0.0 0.00 0.00 0.00 92 1012.5
20260509103940 50 213 0.0 0.0 0.00 0.00 0.00 92 1012.5
20260509103314 51 235 0.0 0.0 0.00 0.00 0.00 91 1012.1
20260509102735 51 215 0.0 0.0 0.00 0.00 0.00 91 1012.5
20260509102123 51 214 0.0 0.0 0.00 0.00 0.00 90 1012.5
20260509101514 51 219 0.0 0.0 0.00 0.00 0.00 90 1012.5
20260509100920 51 226 0.0 0.0 0.00 0.00 0.00 91 1012.5
20260509100325 51 177 0.0 0.0 0.00 0.00 0.00 90 1012.5
20260509095736 51 175 0.0 0.0 0.00 0.00 0.00 91 1012.5
20260509095147 52 225 0.0 0.0 0.00 0.00 0.00 90 1012.5
20260509094533 52 185 0.0 0.0 0.00 0.00 0.00 91 1012.5
20260509093330 52 186 0.0 0.0 0.00 0.00 0.00 90 1012.5
20260509092117 52 215 1.0 2.0 0.00 0.00 0.00 90 1012.5